Location: Newark
(40.7830°N, 8.7430°E)
Time: 08:15:53
(UTC+00:00)

Hubble Space Telescope - Visible Passes

Search period start: 22 October 2019 00:00
Search period end: 01 November 2019 00:00
Orbit: 536 x 540 km, 28.5° (Epoch: 21 October)

Date Brightness Start Highest point End Pass type
(mag) Time Alt. Az. Time Alt. Az. Time Alt. Az.
29 Oct 3.6 04:46:13 10° S 04:46:28 10° SSE 04:46:45 10° SSE visible
30 Oct 3.4 04:34:24 10° S 04:35:45 11° SSE 04:37:07 10° SSE visible
31 Oct 3.3 04:23:14 10° SSW 04:25:02 13° S 04:26:50 10° SE visible
